[[{"header":{"parameterUnit":"m.s-1","parameterCategory":1,"la1":30.2991,"la2":30.254,"lo1":-89.0895,"lo2":-89.0444,"dy":0.0017,"dx":0.0017,"nx":28,"ny":28,"refTime":"2026-02-24T09:00:00:Z","depth":0,"parameterNumber":2,"parameterNumberName":"U-component_of_WINDS"},"data":[0,0,0,0,0,0,0,0,0,0,0,0,0,0,0,0,0,0,0,0,0,0,0,0,0,0,0,0,0,0,0,0,0,0,0,0,0,0,0,0,0,0,0,0,0,0,0,0,0,0,0,0,0,0,0,0,0,0,5.068,5.0682,0,5.0826,5.0828,5.0829,5.0807,5.0804,5.0802,5.08,5.0947,5.0953,5.0959,0,0,0,0,0,0,0,0,0,0,0,0,0,5.0379,5.0384,5.068,5.0682,5.0684,5.0826,5.0828,5.083,5.0807,5.0804,5.0801,5.0798,5.0944,5.0952,5.0959,0,0,0,0,0,0,0,0,0,0,0,0,0,5.0515,5.0386,5.068,5.069,5.0692,5.0825,5.0828,5.083,5.0808,5.0804,5.08,5.0797,5.0942,5.0951,5.096,5.1092,0,0,5.0989,5.0993,0,0,0,0,0,0,0,0,5.0508,5.0527,5.0687,5.0689,5.0692,5.0794,5.0775,5.0918,5.0809,5.0764,5.08,5.0795,5.0899,5.0911,5.0947,5.1099,5.1105,5.099,5.0995,5.0999,5.1002,0,0,0,0,0,0,0,5.0498,5.052,5.0738,5.0689,5.0692,5.0686,5.0701,5.0802,5.085,5.0768,5.0766,5.0784,5.09,5.0938,5.095,5.1107,5.0989,5.0998,5.1003,5.1007,5.137,5.1374,0,0,0,0,0,0,5.0487,5.0512,5.0733,5.0742,5.0589,5.0694,5.0711,5.0765,5.0849,5.0858,5.0787,5.0782,5.0924,5.0939,5.0955,5.1111,5.0999,5.1008,5.1013,5.1366,5.1371,5.1375,0,0,0,0,0,0,5.048,5.0506,5.0727,5.0627,5.0655,5.0703,5.0764,5.077,5.0808,5.0864,5.0872,5.0817,5.0921,5.0942,5.1057,5.1116,5.1012,5.1021,5.1361,5.1368,5.1373,5.1427,0,0,0,0,0,0,5.0472,5.0504,5.0556,5.0628,5.066,5.0828,5.0768,5.0776,5.0825,5.082,5.0895,5.0903,5.092,5.1043,5.1066,5.1127,5.1028,5.1356,5.1364,5.1371,5.142,5.1434,5.1446,0,0,0,0,0,5.0461,5.0566,5.0559,5.0585,5.0726,5.0832,5.085,5.0868,5.083,5.0881,5.0916,5.0901,5.1107,5.1055,5.1081,5.1145,5.1352,5.1362,5.1371,5.1414,5.1431,5.1446,0,0,0,0,0,0,5.0499,5.0575,5.0569,5.07,5.076,5.0828,5.0893,5.0886,5.0957,5.0949,5.0968,5.0985,5.1101,5.1135,5.1077,5.1275,5.1224,5.1239,5.1248,5.1265,5.1278,5.1265,5.1036,0,0,0,0,0,5.0523,5.0603,5.0666,5.0776,5.0806,5.0845,5.0891,5.09,5.0962,5.0987,5.103,5.109,5.1168,5.1219,5.1294,5.1426,5.1439,5.1482,5.1495,5.1506,5.1517,5.1585,5.1604,5.1405,5.1405,5.1405,0,0,5.0572,5.0624,5.0674,5.0784,5.0832,5.0912,5.0866,5.0955,5.1014,5.1,5.111,5.1145,5.1213,5.1335,5.1392,5.1368,5.1575,5.1517,5.1525,5.1531,5.1596,5.1615,5.1632,5.1411,5.141,5.1409,0,0,5.0703,5.0752,5.0847,5.0895,5.0967,5.0992,5.1014,5.1084,5.1105,5.1217,5.1207,5.1278,5.1413,5.146,5.1502,5.1649,5.1636,5.1673,5.1739,5.1806,5.1821,5.1835,5.1884,5.1901,5.1685,5.1685,5.1685,0,5.0755,5.0878,5.0897,5.0986,5.1033,5.1025,5.1119,5.1165,5.1257,5.1289,5.1261,5.1427,5.1473,5.1605,5.164,5.1676,5.17,5.1663,5.1818,5.1832,5.1845,5.1891,5.191,5.1689,5.1688,5.1688,5.1687,0,5.0937,5.1022,5.109,5.1179,5.1234,5.1326,5.1356,5.141,5.1414,5.144,5.1552,5.1606,5.169,5.1723,5.1728,5.1855,5.1837,5.1814,5.1762,5.1867,5.1911,5.1929,5.1694,5.1692,5.1691,5.169,0,0,5.1095,5.1192,5.1216,5.1254,5.1332,5.1398,5.1488,5.157,5.1614,5.1678,5.1751,5.1865,5.1843,5.189,5.19,5.1959,5.2066,5.1928,5.1929,5.1948,5.2205,5.2219,5.224,5.206,5.2063,5.2066,5.2198,0,5.123,5.139,5.1408,5.1549,5.1626,5.1618,5.1696,5.1751,5.1779,5.1847,5.1877,5.1955,5.1922,5.195,5.2008,5.2041,5.2117,5.2032,5.2125,5.2128,5.2105,5.2263,5.228,5.2401,5.2215,5.2218,5.2221,0,5.141,5.1477,5.1626,5.169,5.1723,5.1793,5.1868,5.1934,5.1995,5.2011,5.2063,5.2065,5.2155,5.2102,5.2225,5.2166,5.2206,5.2228,5.2233,5.2239,5.2178,5.227,5.2441,5.2458,5.2248,5.2246,5.2244,0,5.1504,5.1634,5.1738,5.1772,5.1851,5.1899,5.1934,5.1992,5.2039,5.2105,5.2134,5.221,5.2251,5.2308,5.2329,5.2289,5.245,5.2399,5.2462,5.2462,5.2494,5.2491,5.2669,5.2526,5.2525,5.2525,5.2525,0,5.1651,5.1742,5.1781,5.1845,5.1945,5.1965,5.2063,5.2095,5.2147,5.2215,5.2214,5.2278,5.2304,5.2371,5.2389,5.2485,5.2505,5.2518,5.252,5.2516,5.2514,5.2539,5.253,5.253,5.2529,5.2528,5.2527,0,5.1773,5.1804,5.1917,5.1982,5.2,5.207,5.2125,5.2185,5.2212,5.2298,5.232,5.2361,5.244,5.2468,5.2564,5.2576,5.2687,5.2685,5.2666,5.2665,5.2725,5.2718,5.2924,5.295,5.2792,5.2794,5.2795,0,5.1863,5.1932,5.2004,5.205,5.2086,5.2161,5.2208,5.223,5.228,5.2353,5.2404,5.2483,5.2547,5.2674,5.2711,5.2784,5.2781,5.2848,5.2792,5.2783,5.2777,5.2771,5.2776,5.2857,5.2859,5.286,5.2861,0,5.2018,5.2029,5.2099,5.2173,5.223,5.2289,5.2347,5.2384,5.2414,5.2469,5.255,5.26,5.2697,5.2774,5.2849,5.2883,5.2876,5.2879,5.2897,5.2891,5.2875,5.288,5.269,5.2874,5.2872,5.2872,5.2871,5.287,5.2124,5.2184,5.2242,5.2319,5.2364,5.2417,5.2476,5.251,5.2578,5.2659,5.2668,5.2754,5.2811,5.291,5.2947,5.3014,5.2995,5.3021,5.3027,5.3033,5.3035,5.2868,5.3028,5.3027,5.3027,5.3027,5.3027,0,5.2275,5.2312,5.2383,5.2462,5.2522,5.2512,5.2574,5.2624,5.27,5.2754,5.2816,5.2908,5.2982,5.3025,5.3099,5.3143,5.3142,5.3161,5.3156,5.3163,5.305,5.3025,5.3161,5.3161,5.3161,5.3161,5.3161,5.3161,5.236,5.2459,5.2477,5.2597,5.2634,5.2718,5.2754,5.2802,5.2845,5.2947,5.3009,5.3036,5.3085,5.3162,5.3229,5.3239,5.3265,5.3286,5.3294,5.3186,5.3172,5.3159,5.3135,5.3292,5.3292,5.3401,5.3402,5.3403]},{"header":{"parameterUnit":"m.s-1","parameterCategory":1,"la1":30.2991,"la2":30.254,"lo1":-89.0895,"lo2":-89.0444,"dy":0.0017,"dx":0.0017,"nx":28,"ny":28,"refTime":"2026-02-24T09:00:00:Z","depth":0,"parameterNumber":3,"parameterNumberName":"V-component_of_WINDS"},"data":[0,0,0,0,0,0,0,0,0,0,0,0,0,0,0,0,0,0,0,0,0,0,0,0,0,0,0,0,0,0,0,0,0,0,0,0,0,0,0,0,0,0,0,0,0,0,0,0,0,0,0,0,0,0,0,0,0,0,5.4095,5.4097,0,5.4261,5.4263,5.4265,5.4251,5.4248,5.4246,5.4243,5.4411,5.4417,5.4424,0,0,0,0,0,0,0,0,0,0,0,0,0,5.3762,5.3769,5.4095,5.4097,5.4099,5.4261,5.4263,5.4265,5.4251,5.4248,5.4245,5.4242,5.4409,5.4417,5.4425,0,0,0,0,0,0,0,0,0,0,0,0,0,5.3915,5.3771,5.4095,5.4112,5.4115,5.426,5.4263,5.4266,5.4252,5.4248,5.4244,5.4241,5.4406,5.4416,5.4426,5.4564,0,0,5.4457,5.4461,0,0,0,0,0,0,0,0,5.3907,5.3928,5.4107,5.4111,5.4115,5.4231,5.4207,5.4366,5.4253,5.42,5.4243,5.4239,5.4354,5.4368,5.4408,5.4572,5.4579,5.4458,5.4464,5.4469,5.4471,0,0,0,0,0,0,0,5.3896,5.392,5.4161,5.411,5.4114,5.411,5.4128,5.4237,5.4296,5.4204,5.4204,5.4224,5.4355,5.4398,5.4411,5.4582,5.4458,5.4467,5.4473,5.4477,5.4867,5.4871,0,0,0,0,0,0,5.3882,5.3912,5.4155,5.4166,5.3999,5.4119,5.4139,5.4198,5.4295,5.4306,5.4227,5.4222,5.4382,5.44,5.4417,5.4585,5.4468,5.4478,5.4484,5.4863,5.4868,5.4872,0,0,0,0,0,0,5.3875,5.3904,5.4149,5.4039,5.4069,5.4129,5.4195,5.4203,5.4245,5.4312,5.4322,5.4259,5.438,5.4403,5.4528,5.4591,5.4483,5.4492,5.4858,5.4864,5.487,5.4922,0,0,0,0,0,0,5.3866,5.3902,5.3956,5.404,5.4075,5.4258,5.4199,5.4209,5.4263,5.4259,5.4345,5.4356,5.4379,5.4513,5.4538,5.4603,5.45,5.4852,5.4861,5.4868,5.4915,5.4929,5.4942,0,0,0,0,0,5.3854,5.3963,5.3958,5.3988,5.4144,5.4261,5.4281,5.4306,5.4269,5.4323,5.4365,5.4353,5.458,5.4526,5.4554,5.4623,5.4848,5.4858,5.4867,5.4909,5.4927,5.4942,0,0,0,0,0,0,5.3884,5.3975,5.397,5.4111,5.4179,5.4259,5.4328,5.4324,5.4404,5.4396,5.4423,5.4443,5.4568,5.4608,5.4546,5.4761,5.4709,5.4724,5.4731,5.4748,5.4761,5.4749,5.4508,0,0,0,0,0,5.3907,5.3996,5.407,5.4186,5.4221,5.4269,5.432,5.4334,5.4405,5.4433,5.4484,5.4553,5.4639,5.4696,5.4779,5.4921,5.4938,5.4982,5.4995,5.5006,5.5019,5.5096,5.5115,5.4904,5.4904,5.4903,0,0,5.3956,5.4016,5.407,5.4194,5.4248,5.4338,5.4293,5.439,5.4456,5.4447,5.4569,5.4609,5.4687,5.482,5.4882,5.4857,5.5081,5.5018,5.5026,5.5033,5.5107,5.5127,5.5145,5.491,5.4909,5.4908,0,0,5.409,5.4145,5.4248,5.4303,5.4386,5.4417,5.4441,5.4523,5.4549,5.4671,5.4666,5.4745,5.4894,5.4949,5.4997,5.5151,5.5143,5.5178,5.5247,5.5322,5.5339,5.5353,5.5408,5.5427,5.519,5.5191,5.5191,0,5.414,5.4276,5.4301,5.44,5.4453,5.445,5.4554,5.4605,5.4711,5.4748,5.4719,5.4905,5.4957,5.5103,5.5141,5.518,5.5208,5.5168,5.5334,5.535,5.5364,5.5416,5.5436,5.5194,5.5194,5.5193,5.5193,0,5.4333,5.4427,5.45,5.4603,5.4665,5.4765,5.4804,5.4864,5.4871,5.4905,5.5029,5.5091,5.5187,5.5222,5.5231,5.537,5.5352,5.5329,5.5276,5.5387,5.5437,5.5457,5.52,5.5198,5.5197,5.5196,0,0,5.4492,5.4606,5.4633,5.4679,5.4769,5.4842,5.4941,5.5036,5.5086,5.5158,5.5242,5.5367,5.5346,5.54,5.5414,5.548,5.5597,5.5449,5.5451,5.5474,5.5753,5.577,5.5793,5.5592,5.5596,5.5599,5.5746,0,5.4635,5.4812,5.4837,5.4994,5.508,5.5078,5.5164,5.5228,5.5262,5.534,5.5377,5.5465,5.5431,5.5463,5.5528,5.5569,5.5653,5.5559,5.5669,5.5672,5.5649,5.5819,5.5837,5.5973,5.5766,5.5769,5.5771,0,5.4826,5.4904,5.5069,5.5147,5.5184,5.5262,5.535,5.5424,5.5496,5.5516,5.5577,5.5582,5.5684,5.5628,5.5767,5.5703,5.5749,5.5776,5.5781,5.5793,5.5729,5.5834,5.6017,5.6037,5.5802,5.58,5.5798,0,5.4924,5.5071,5.5188,5.5228,5.5322,5.5376,5.5418,5.5486,5.5541,5.5617,5.5653,5.574,5.5787,5.5853,5.5882,5.5838,5.602,5.5966,5.6038,5.6038,5.6077,5.6074,5.627,5.6107,5.6107,5.6106,5.6106,0,5.5081,5.5182,5.5234,5.5306,5.5419,5.5446,5.5556,5.5596,5.5657,5.5736,5.5738,5.5812,5.5845,5.5924,5.5947,5.6059,5.608,5.6098,5.6103,5.6098,5.6096,5.6129,5.612,5.6112,5.611,5.6109,5.6108,0,5.5211,5.5249,5.5377,5.5456,5.5478,5.5557,5.5624,5.5693,5.5726,5.5826,5.5851,5.5902,5.5995,5.603,5.6143,5.6158,5.6287,5.6284,5.6263,5.6264,5.6334,5.6327,5.6558,5.6589,5.6406,5.6408,5.6409,0,5.5308,5.5386,5.5473,5.5526,5.557,5.5656,5.5712,5.5741,5.5799,5.5886,5.5945,5.6038,5.6113,5.6261,5.6307,5.6393,5.6393,5.6467,5.6405,5.6398,5.6393,5.6388,5.6396,5.6479,5.6481,5.6482,5.6483,0,5.5477,5.5492,5.5574,5.5662,5.5728,5.5799,5.5867,5.591,5.5949,5.6014,5.6109,5.6168,5.6283,5.6374,5.6462,5.6504,5.65,5.6503,5.6524,5.652,5.6504,5.6513,5.6294,5.6497,5.6496,5.6495,5.6494,5.6494,5.5594,5.5662,5.5734,5.5824,5.5878,5.5942,5.6011,5.6053,5.6133,5.6229,5.6241,5.6343,5.6412,5.653,5.6575,5.6654,5.6634,5.6665,5.6673,5.668,5.6685,5.6491,5.6671,5.667,5.667,5.667,5.6669,0,5.5762,5.5808,5.5891,5.5986,5.6057,5.6048,5.6123,5.6182,5.6272,5.6337,5.6411,5.652,5.6609,5.6662,5.675,5.6803,5.6804,5.6826,5.6822,5.6831,5.6698,5.6671,5.6824,5.6824,5.6824,5.6824,5.6824,5.6823,5.5858,5.5974,5.5998,5.614,5.6185,5.6285,5.6329,5.6387,5.6439,5.656,5.6634,5.6669,5.6729,5.6821,5.6902,5.6915,5.6947,5.6971,5.6982,5.6857,5.6841,5.6825,5.68,5.6977,5.6978,5.7109,5.711,5.7111]}]]